This is the latest recevied weather packets stored in our database for station/object KD4WXI. If no packets are shown the sender has not sent any weather packets the latest 10 day(s).
| Time | Temp. | Humidity | Pressure | Rain* | Wind** | Luminosity | Snow |
|---|---|---|---|---|---|---|---|
| 1777650445 | 16.67° C | 47% | 1016.5 hPa | 0 mm | - | 649 W/m² | - |
| 1777650142 | 16.67° C | 50% | 1016.5 hPa | 0 mm | - | 702 W/m² | - |
| 1777649840 | 16.67° C | 48% | 1016.6 hPa | 0 mm | - | 696 W/m² | - |
| 1777649537 | 16.67° C | 53% | 1016.4 hPa | 0 mm | - | 717 W/m² | - |
| 1777649233 | 16.11° C | 52% | 1016.9 hPa | 0 mm | - | 727 W/m² | - |
| 1777648930 | 16.11° C | 51% | 1016.7 hPa | 0 mm | - | 641 W/m² | - |
| 1777648628 | 15.56° C | 52% | 1017.1 hPa | 0 mm | - | 698 W/m² | - |
| 1777648324 | 15° C | 52% | 1016.9 hPa | 0 mm | - | 383 W/m² | - |
| 1777648020 | 15.56° C | 54% | 1016.9 hPa | 0 mm | - | 342 W/m² | - |
| 1777647717 | 15.56° C | 51% | 1016.5 hPa | 0 mm | - | 626 W/m² | - |
| 1777647413 | 16.11° C | 52% | 1016.5 hPa | 0 mm | - | 548 W/m² | - |
| 1777647111 | 16.11° C | 52% | 1016.6 hPa | 0 mm | - | 511 W/m² | - |
| 1777646807 | 15.56° C | 50% | 1016.7 hPa | 0 mm | - | 573 W/m² | - |
| 1777646502 | 15.56° C | 52% | 1016.9 hPa | 0 mm | - | 560 W/m² | - |
| 1777646198 | 15.56° C | 53% | 1016.9 hPa | 0 mm | - | 557 W/m² | - |
| 1777645896 | 15° C | 53% | 1016.9 hPa | 0 mm | - | 552 W/m² | - |
| 1777645593 | 15° C | 55% | 1016.8 hPa | 0 mm | - | 407 W/m² | - |
| 1777645289 | 15° C | 52% | 1016.8 hPa | 0 mm | - | 456 W/m² | - |
| 1777644985 | 15° C | 53% | 1017 hPa | 0 mm | - | 497 W/m² | - |
| 1777644683 | 14.44° C | 53% | 1016.9 hPa | 0 mm | - | 496 W/m² | - |
| 1777644378 | 14.44° C | 55% | 1016.7 hPa | 0 mm | - | 443 W/m² | - |
| 1777644075 | 14.44° C | 53% | 1016.8 hPa | 0 mm | - | 464 W/m² | - |
| 1777643772 | 15° C | 54% | 1016.5 hPa | 0 mm | - | 392 W/m² | - |
| 1777643470 | 15° C | 54% | 1016.6 hPa | 0 mm | - | 407 W/m² | - |
| 1777643166 | 13.89° C | 59% | 1016.7 hPa | 0 mm | - | 366 W/m² | - |
* Rain latest hour (hover to see other rain measurements)
** Current wind speed in m/s (hover to see current wind gust speed)